Weather History for Erwin, NC

Change the Weather History Date:

Wednesday, July 31, 2013

  Actual Average Record
Temperature  
Mean Temperature 78 °F -  
Max Temperature 83 °F 87 °F 100 °F (1999)
Min Temperature 73 °F 67 °F 62 °F (1966)
Cooling Degree Days 13    
Growing Degree Days 28 (Base 50)    
Moisture  
Dew Point 71 °F    
Average Humidity 80    
Maximum Humidity 99    
Minimum Humidity 60    
Precipitation  
Precipitation 0.04 in - - ()
Sea Level Pressure  
Sea Level Pressure 30.10 in    
Wind  
Wind Speed 2 mph (SSE)    
Max Wind Speed 7 mph    
Max Gust Speed -    
Visibility 4 miles    
Events Fog , Rain    
Averages and records for this station are not official NWS values.
T = Trace of Precipitation, MM = Missing Value Source: NWS Daily Summary

Daily Weather History Graph

Daily Weather History Graph

Search for Another Location

Airport:

Trip Planner

Search our weather history database for the weather conditions in past years. The results will help you decide how hot, cold, wet, or windy it might be!

Date:

Astronomy

Jul. 31, 2013 Rise Set
Actual Time 6:22 AM EDT 8:19 PM EDT
Civil Twilight 5:54 AM EDT 8:47 PM EDT
Nautical Twilight 5:20 AM EDT 9:21 PM EDT
Astronomical Twilight 4:44 AM EDT 9:57 PM EDT
Moon 1:16 AM EDT (7/31) 3:33 PM EDT (7/31)
Length of Visible Light 14h 52m
Length of Day
13h 56m
Waning Crescent, 32% of the Moon is Illuminated
Jul 31
Waning Crescent
Aug 6
New
Aug 14
First Quarter
Aug 20
Full
Aug 28
Last Quarter

Hourly Weather History & Observations

Time (EDT) Temp. Heat Index Dew Point Humidity Pressure Visibility Wind Dir Wind Speed Gust Speed Precip Events Conditions
12:15 AM 76.5 °F - 68.7 °F 77% 30.15 in 0.2 mi Calm Calm - N/A   Haze
12:35 AM 76.3 °F - 68.5 °F 77% 30.15 in 0.2 mi Calm Calm - N/A   Haze
12:55 AM 75.7 °F - 68.5 °F 78% 30.15 in 0.2 mi Calm Calm - N/A   Haze
1:15 AM 75.9 °F - 68.4 °F 77% 30.15 in 0.2 mi Calm Calm - N/A   Haze
1:35 AM 75.2 °F - 70.3 °F 85% 30.15 in 0.5 mi Calm Calm - N/A   Haze
1:55 AM 74.3 °F - 72.1 °F 93% 30.15 in 10.0 mi Calm Calm - N/A   Clear
2:15 AM 73.8 °F - 72.5 °F 96% 30.14 in 7.0 mi Calm Calm - N/A   Clear
2:55 AM 73.6 °F - 72.1 °F 95% 30.14 in 7.0 mi Calm Calm - N/A   Clear
3:15 AM 73.6 °F - 72.0 °F 95% 30.13 in 0.5 mi Calm Calm - N/A Fog Fog
3:35 AM 73.4 °F - 72.0 °F 95% 30.12 in 2.0 mi ENE 4.6 mph - N/A   Clear
3:55 AM 73.6 °F - 72.0 °F 95% 30.12 in 4.0 mi Calm Calm - N/A   Clear
4:15 AM 73.4 °F - 72.1 °F 96% 30.12 in 7.0 mi Calm Calm - N/A   Clear
4:35 AM 73.0 °F - 72.1 °F 97% 30.13 in 7.0 mi Calm Calm - N/A   Clear
4:55 AM 73.4 °F - 72.1 °F 96% 30.13 in 2.5 mi Calm Calm - N/A   Clear
5:15 AM 73.4 °F - 72.1 °F 96% 30.13 in 2.0 mi Calm Calm - N/A   Mostly Cloudy
5:35 AM 73.4 °F - 72.5 °F 97% 30.14 in 0.2 mi Calm Calm - N/A Fog Fog
5:55 AM 73.4 °F - 72.5 °F 97% 30.14 in 0.2 mi Calm Calm - N/A Fog Fog
6:15 AM 73.4 °F - 72.5 °F 97% 30.14 in 7.0 mi East 3.5 mph - N/A   Scattered Clouds
6:35 AM 73.6 °F - 72.7 °F 97% 30.15 in 5.0 mi Calm Calm - N/A   Mostly Cloudy
6:55 AM 73.6 °F - 72.9 °F 98% 30.15 in 4.0 mi ENE 3.5 mph - N/A   Scattered Clouds
7:15 AM 73.8 °F - 73.0 °F 98% 30.15 in 4.0 mi Calm Calm - N/A   Mostly Cloudy
7:35 AM 73.8 °F - 73.4 °F 99% 30.15 in 3.0 mi Calm Calm - N/A   Overcast
7:55 AM 74.1 °F - 73.4 °F 98% 30.15 in 3.0 mi Calm Calm - N/A   Overcast
8:15 AM 74.7 °F - 73.6 °F 96% 30.15 in 3.0 mi Calm Calm - N/A   Overcast
8:35 AM 75.2 °F - 73.6 °F 95% 30.15 in 4.0 mi East 3.5 mph - N/A   Overcast
8:55 AM 76.1 °F - 74.1 °F 94% 30.14 in 5.0 mi East 3.5 mph - N/A   Scattered Clouds
9:15 AM 76.5 °F - 73.9 °F 92% 30.15 in 7.0 mi SE 3.5 mph - N/A   Clear
9:35 AM 77.2 °F - 73.9 °F 90% 30.15 in 10.0 mi Calm Calm - N/A   Mostly Cloudy
9:55 AM 77.5 °F - 73.6 °F 88% 30.15 in 10.0 mi Calm Calm - N/A   Overcast
10:15 AM 79.0 °F - 72.9 °F 81% 30.15 in 10.0 mi South 4.6 mph - N/A   Mostly Cloudy
10:35 AM 79.7 °F - 72.1 °F 78% 30.15 in 10.0 mi South 3.5 mph - N/A   Scattered Clouds
10:55 AM 79.7 °F - 71.6 °F 76% 30.15 in 10.0 mi South 3.5 mph - N/A   Scattered Clouds
11:15 AM 80.1 °F 83.6 °F 71.2 °F 74% 30.15 in 10.0 mi South 4.6 mph - N/A   Clear
11:35 AM 80.6 °F 84.6 °F 71.6 °F 74% 30.14 in 10.0 mi Calm Calm - N/A   Clear
11:55 AM 81.5 °F 85.1 °F 70.2 °F 68% 30.13 in 4.0 mi SSE 4.6 mph - N/A   Haze
12:15 PM 82.4 °F 86.5 °F 70.3 °F 67% 30.12 in 5.0 mi Calm Calm - N/A   Haze
12:35 PM 82.4 °F 86.7 °F 70.9 °F 68% 30.12 in 7.0 mi Calm Calm - N/A   Scattered Clouds
12:55 PM 82.8 °F 86.7 °F 69.8 °F 65% 30.12 in 7.0 mi South 4.6 mph - N/A   Mostly Cloudy
1:15 PM 83.5 °F 86.9 °F 68.7 °F 61% 30.12 in 5.0 mi South 5.8 mph - N/A   Haze
1:35 PM 83.7 °F 87.0 °F 68.5 °F 60% 30.12 in 5.0 mi South 6.9 mph - N/A   Haze
1:55 PM 83.5 °F 86.9 °F 68.9 °F 61% 30.10 in 5.0 mi ESE 4.6 mph - N/A   Haze
2:15 PM 83.1 °F 87.1 °F 69.6 °F 64% 30.10 in 3.0 mi SE 5.8 mph - N/A   Haze
2:35 PM 82.6 °F 86.4 °F 69.8 °F 65% 30.10 in 3.0 mi SSE 4.6 mph - N/A   Haze
2:55 PM 82.8 °F 85.8 °F 68.2 °F 61% 30.09 in 2.0 mi SSE 6.9 mph - N/A   Haze
3:15 PM 82.0 °F 85.5 °F 69.3 °F 65% 30.09 in 4.0 mi SSE 4.6 mph - N/A   Haze
3:35 PM 81.5 °F 84.9 °F 69.6 °F 67% 30.07 in 2.5 mi SE 4.6 mph - N/A   Haze
3:55 PM 81.5 °F 84.9 °F 69.8 °F 67% 30.07 in 3.0 mi SSE 3.5 mph - N/A   Haze
4:15 PM 81.1 °F 84.7 °F 70.0 °F 69% 30.06 in 5.0 mi Calm Calm - N/A   Haze
4:35 PM 81.5 °F 85.1 °F 70.2 °F 68% 30.05 in 5.0 mi SE 3.5 mph - N/A   Haze
4:55 PM 81.7 °F 85.2 °F 69.8 °F 67% 30.05 in 5.0 mi SE 4.6 mph - N/A   Haze
5:15 PM 81.7 °F 85.1 °F 69.3 °F 66% 30.04 in 2.0 mi SE 3.5 mph - N/A   Haze
5:35 PM 82.8 °F 86.2 °F 69.1 °F 63% 30.04 in 1.8 mi SE 4.6 mph - N/A   Haze
5:55 PM 82.8 °F 85.8 °F 68.0 °F 61% 30.03 in 2.0 mi SSE 6.9 mph - N/A   Haze
6:15 PM 82.0 °F 85.3 °F 68.9 °F 64% 30.03 in 2.0 mi SSE 3.5 mph - N/A   Haze
6:35 PM 81.5 °F 84.9 °F 69.6 °F 67% 30.03 in 2.5 mi SSE 3.5 mph - N/A   Haze
6:55 PM 80.6 °F 83.9 °F 70.0 °F 70% 30.03 in 2.0 mi SSE 4.6 mph - N/A   Haze
7:15 PM 79.7 °F - 69.8 °F 72% 30.03 in 1.8 mi SSE 4.6 mph - N/A   Haze
7:35 PM 79.7 °F - 68.7 °F 69% 30.03 in 2.0 mi SSE 5.8 mph - N/A   Haze
7:55 PM 79.0 °F - 67.6 °F 68% 30.03 in 1.8 mi SSE 5.8 mph - N/A   Haze
8:15 PM 78.4 °F - 67.5 °F 69% 30.04 in 1.0 mi SSE 3.5 mph - N/A   Haze
8:35 PM 78.3 °F - 67.5 °F 69% 30.04 in 2.0 mi SSE 4.6 mph - N/A   Haze
8:55 PM 77.9 °F - 68.2 °F 72% 30.04 in 2.0 mi SSE 4.6 mph - N/A   Haze
9:15 PM 77.7 °F - 68.9 °F 74% 30.04 in 2.0 mi SSE 6.9 mph - N/A   Haze
9:35 PM 77.4 °F - 69.6 °F 77% 30.05 in 3.0 mi SSE 4.6 mph - N/A   Haze
9:55 PM 77.2 °F - 70.2 °F 79% 30.05 in 3.0 mi SSE 5.8 mph - N/A   Haze
10:15 PM 77.0 °F - 70.7 °F 81% 30.04 in 3.0 mi SSE 5.8 mph - N/A   Haze
10:35 PM 76.8 °F - 70.9 °F 82% 30.05 in 0.5 mi SSE 3.5 mph - N/A   Haze
10:55 PM 76.6 °F - 72.9 °F 88% 30.05 in 0.5 mi SSE 5.8 mph - N/A Rain Light Rain
11:15 PM 76.1 °F - 74.5 °F 95% 30.05 in 0.5 mi South 5.8 mph - 0.01 in Rain Rain
11:35 PM 75.6 °F - 74.5 °F 96% 30.03 in 0.2 mi South 4.6 mph - 0.02 in Rain Rain
11:55 PM 75.2 °F - 74.3 °F 97% 30.04 in 0.8 mi WSW 4.6 mph - 0.04 in Rain Rain